Tracking 34717 objects as of 14-Jul-2026
HD Live streaming from Space Station
objects crossing your sky now

PARS-1

Track PARS-1 now!
10-day predictions
PARS-1 is classified as:


NORAD ID: 59065
Int'l Code: 2024-039Q
Perigee: 428.0 km
Apogee: 441.5 km
Inclination: 97.5 °
Period: 93.1 minutes
Semi major axis: 6805 km
RCS: Unknown
Launch date: February 29, 2024
Source: (TBD)
Launch site: VOSTOCHNY COSMODROME (VOSTO)

Uplink (MHz):
Downlink (MHz): 145.000/2221.000
Beacon (MHz):
Mode: FM
Call sign:
Status: Unknown


Note: This is a ROCKET BODY
Your satellite tracking list
Your tracking list is empty




NASA's NSSDC Master Catalog

Two Line Element Set (TLE):
1 59065U 24039Q   26194.91650326  .00007034  00000-0  14455-3 0  9993
2 59065  97.4833 176.6911 0009918  31.0733 329.1101 15.46272075132772
Source of the keplerian elements: AFSPC